Погода Поярково

Погода Поярково : погода сейчас, прогноз погоды и архив. Всё, что Вы хотите узнать о погоде Поярково!

Поиск расширенной информации на нашем сайте:

Другие новости

Новости СМИ2

Главная страница сайта

Новости сайта

03.07.2017

Напоминаем, что на нашем специализированном сайте Метеоцентр.Азия вы можете получить высокодетализированные автоматические прогнозы погоды по пунктам России, СНГ и мира в авиационном формате (включающие направление и скорость ветра, видимость, явления погоды, количество и форму облачности, нижнюю и верхнюю границу облачности).

Рекомендуем: новая баня екатеринбург

Погода Поярково - сегодня

Время (UTC), дата Ветер
(°,м/с) 
Видим.   Явления Облачность Т
(°С)
Тd
(°С)
f(%) Тe
(°С)
Pmin
(гПа)
dP
(гПа)
Po
(мм)
O2
(г/м3)
Тmin Tmax R s Состояние
почвы
18 20.08.17 070 (В) н/о  дымка  ясно 
+18.1 +17.1 94 +33  1006.2  -0.8  745  278           
21 20.08.17 090 (В) 20000 м    8/8 600 м кучево-дожд. 
[Cb calv]
+18.6 +17.5 93 +34  1005.9  -0.3  744  277           
00 21.08.17 120 (ЮВ) 20000 м    4/1 1000 м верхняя 
[Cu med, cong|Ci fib]
+24.3 +19.3 74 +42  1004.8  -0.8  744  271  +18.1        сухая 
03 21.08.17 140 (ЮВ) 20000 м    4/3 600 м кучево-дожд., верхняя 
[Cb calv|Ci fib]
+28.9 +20.5 61 +49  1002.3  -2.2  742  265           
06 21.08.17 180 (Ю) 4{10}  20000 м    8/6 600 м кучево-дожд., верхняя 
[Cb calv|Ci fib]
+30 +19.6 54 +48  999.4  -2.9  740  264           
09 21.08.17 180 (Ю) 2{10}  20000 м  в посл. час гроза{ливн. осадки}  10/3 600 м кучево-дожд., средняя, верхняя 
[Cb calv|Ac cuf|Ci fib]
+26.8 +20.7 69 +48  998.7  -0.8  739  266           
12 21.08.17 280 (З) 5-13{13}  н/о  слаб. ливневой дождь, в посл. час гроза  10/10 600 м кучево-дожд. 
[Cb cap]
+23.4 +17.9 71 +38  1000.3  1.5  740  271    +31.1  0.5     
15 21.08.17 120 (ЮВ) 3{13}  н/о  ливневой дождь, в посл. час гроза  10/10 600 м кучево-дожд. 
[Cb cap]
+17 +16.1 94 +28  1000.2  -0.6  740  277           
18 21.08.17 140 (ЮВ) н/о  {гроза}  3/3 600 м кучево-дожд. 
[Cb calv]
+16.5 +15.6 94 +28  1001.4  1.1  741  278           
21 21.08.17 тихо ()   20000 м    ясно 
+15.9 +14.8 93 +25  1002.3  0.8  742  279           
00 22.08.17 240 (ЮЗ) 20000 м    ясно 
+22.3 +15.2 64 +32  1003.1  1.1  743  273  +15.8    29    влажная 
03 22.08.17 230 (ЮЗ) 20000 м    10/0 верхняя 
[Cs]
+25 +12.9 47 +31  1002.2  -0.8  742  271           
06 22.08.17 230 (ЮЗ) 3{11}  20000 м    10/8 1000 м верхняя 
[Cu hum|Ci fib]
+25.1 +11.3 42 +28  1001.7  -0.5  742  272           
09 22.08.17 250 (З) 20000 м    3/0 верхняя 
[Ci fib]
+23.3 +12.2 50 +28  1003.1  1.2  743  273           
12 22.08.17 220 (ЮЗ) н/о    3/3 600 м кучево-дожд. 
[Cb calv]
+18.1 +12.9 72 +24  1003.9  0.6  743  278    +26.2       
15 22.08.17 270 (З) н/о    6/6 600 м кучево-дожд. 
[Cb calv]
+18.8 +12.3 66 +25  1004.3  0.4  743  278           
18 22.08.17 280 (З) н/о    3/3 600 м кучево-дожд. 
[Cb calv]
+14.9 +12.9 88 +21  1004.9  0.4  744  282           
21 22.08.17 тихо ()   4000 м  дымка  3/0 верхняя 
[Ci fib]
+12.5 +11 91 +15  1005.4  0.4  744  285           
00 23.08.17 260 (З) 10 км  дым  4/0 верхняя 
[Ci fib]
+18.8 +12.2 65 +24  1005.3  0.2  744  278  +12.5        влажная 
03 23.08.17 240 (ЮЗ) 20000 м    4/0 верхняя 
[Ci fib]
+22.3 +13 56 +28  1004.2  -1  743  274           
06 23.08.17 230 (ЮЗ) 10 км    10/8 600 м кучево-дожд., верхняя 
[Cb calv|Cs]
+22 +14.2 61 +30  1003.5  -0.7  743  274           
09 23.08.17 290 (З) 10 км    10/0 верхняя 
[Ci fib]
+22.2 +12.6 55 +27  1003.1  -0.4  743  274           
12 23.08.17 230 (ЮЗ) н/о    10/0 верхняя 
[Ci fib]
+16 +14.1 88 +24  1003.4  743  280    +24.4       
15 23.08.17 тихо ()   н/о  дымка  3/0 верхняя 
[Ci fib]
+14.5 +13.4 93 +21  1003.1  -0.3  742  281           
18 23.08.17 080 (В) н/о  дымка  3/0 верхняя 
[Ci fib]
+12.2 +11.3 94 +16  1002.3  -0.9  742  284           
Время (UTC), дата Ветер
(°,м/с) 
Видим.   Явления Облачность Т
(°С)
Тd
(°С)
f(%) Тe
(°С)
Pmin
(гПа)
dP
(гПа)
Po
(мм)
O2
(г/м3)
Тmin Tmax R s Состояние
почвы

Для получения пояснительной информации подведите курсор к названию столбца.

ПОГОДА Поярково - архив

Всё, что Вы хотите узнать о погоде Поярково - удобно и подробно!

Выберите нужную дату (начиная с 1 января 2015* года) и нажмите кнопку "Найти".
Будут отображены архивные сводки погоды по пункту Поярково, начиная с указанной даты.


Отображать данные в формате CSV (для использования в таблицах Excel)


Внимание! Наш архив погоды предназначен исключительно для личного некоммерческого использования в познавательных целях. Если Вам необходимы официальные справки о состоянии погоды (для производственных, юридических, коммерческих и т.п. целей), обращайтесь в органы Росгидромета.

*Примечание: данная дата относится к архиву по метеостанциям СССР (Россия, СНГ, Балтия).
Архив по метеостанциям Зарубежной Европы и Азии (кроме Китая) хранится 10 дней, по другим регионам земного шара (Китай, Африка, Америка, Австралия, Океания) - 1 день.

Поярково - район местоположения метеостанции


Название, широта, долгота, высота метеостанции:
Поярково 49.6°ш. 128.6°д. 115 м над ур. моря [Российская Федерация]

Дополнительная информация

В oтличие oт бoльшинства пoгoдных сайтoв мы публикуем пoдрoбную метеoинфoрмацию в детальнoм прoфессиoнальнoм фoрмате.

Характеристики температуры и влажнoсти вoздуха измеряются на высoте 2 м в тени вдали oт зданий и деревьев.
Скoрoсть ветра измеряется на высoте 10 м (на урoвне рoста челoвека скoрoсть ветра ниже в 1.5-2 раза). Если метеoстанция нахoдится в гoрoде или в лесу, тo скoрoсть ветра занижена на 2-4 м/с пo сравнению с oткрытым местoм. Скoрoсть ветра над акватoриями крупных рек и oзёр, а также на вершинах хoлмoв на 2-5 м/с выше, чем в oбычных услoвиях.
Атмoсфернoе давление в разных тoчках местнoсти мoжет значительнo oтличаться oт давления на метеoстанции, в зависимoсти oт услoвий рельефа (при пoдъёме на 10 м давление пoнижается примернo на 1 мм рт.ст.).